Weather in Shauljaj

Lithuania     55°55′58″N   23°19′03″E
temp.,
°C
wind,
m/s
gust,
m/s
humid.,
%
clouds,
%
prec.,
mm/h
press.,
hPa
HPBL,
m
28 july, wed
wed2800:00+18sw3695100 0.0 1010110
03:00+16wsw369615 0.0 1010135
06:00+16wsw359725 0.0 1010107
09:00+21wsw358359 0.0 1011375
12:00+24wsw4564100 0.0 10101099
15:00+26wsw565254 0.3 10101921
18:00+25w46585 0.0 10091490
21:00+21wsw227027 0.0 100913
29 july, thu
thu2900:00+18wsw2273100 0.0 100927
03:00+16wsw3892100 0.3 1008155
06:00+16sw379713 0.0 1008173
09:00+20w57825 0.0 1007579
12:00+23wsw576051 0.0 10071543
15:00+22wsw6106680 0.3 1007663
18:00+23w795851 0.1 10061701
21:00+19wsw4969100 0.1 1006355
30 july, fri
fri3000:00+16sw4108287 0.1 1007454
03:00+14ssw410895 0.1 1007241
06:00+14sw615805 0.1 1006572
09:00+17sw712713 0.1 10051237
12:00+21sw9135395 0.1 10041976
15:00+21sw914508 0.1 10042050
18:00+20wsw91556100 0.1 10031946
21:00+17wsw9166613 0.1 10031110
31 july, sat
sat3100:00+17wsw7157841 0.0 1003933
03:00+17wsw71484100 0.0 1004774
06:00+16wsw6138985 0.0 1004615
09:00+19wsw7107523 0.0 1005893
12:00+22sw6858100 0.0 10041267
15:00+24sw684749 0.0 10031879
18:00+22sw6106899 0.4 10021276
21:00+17sw4990100 1.2 1002271
1 august, sun
sun100:00+14sw412930 0.0 1003310
03:00+14ssw6149466 0.1 1003462
06:00+14sw6149399 0.1 1003474
09:00+18wsw7118311 0.3 10041063
12:00+21wsw8105368 0.1 10051776
15:00+21w7956100 0.1 10061706
18:00+20wsw5860100 0.0 10071445
21:00+17wsw367889 0.1 1007113